| time (UTC) | temp C | wind direction | speed KPH | gust KPH | rain 1hr cm | rain 24hr cm | rain mn cm | humidity % | barometer mb |
| 20260503072532 | 19 | 183 | 3.2 | 11.3 | 0.00 | 0.00 | 0.00 | 54 | 1018.4 |
| 20260503071530 | 18 | 160 | 8.0 | 12.9 | 0.00 | 0.00 | 0.00 | 50 | 1018.4 |
| 20260503070531 | 18 | 143 | 8.0 | 11.3 | 0.00 | 0.00 | 0.00 | 49 | 1018.2 |
| 20260503054531 | 15 | 162 | 3.2 | 9.7 | 0.00 | 0.00 | 0.00 | 61 | 1018.2 |
| 20260503053532 | 14 | 149 | 4.8 | 12.9 | 0.00 | 0.00 | 0.00 | 63 | 1018.1 |
| 20260503051532 | 13 | 146 | 3.2 | 9.7 | 0.00 | 0.00 | 0.00 | 66 | 1018.6 |
| 20260503050543 | 12 | 137 | 3.2 | 9.7 | 0.00 | 0.00 | 0.00 | 69 | 1018.5 |
| 20260503044531 | 11 | 160 | 3.2 | 6.4 | 0.00 | 0.00 | 0.00 | 71 | 1018.6 |
| 20260503042532 | 9 | 131 | 1.6 | 4.8 | 0.00 | 0.00 | 0.00 | 81 | 1018.7 |
| 20260503041533 | 6 | 130 | 0.0 | 3.2 | 0.00 | 0.00 | 0.00 | 94 | 1018.8 |
| 20260503040533 | 5 | 124 | 0.0 | 1.6 | 0.00 | 0.00 | 0.00 | 99 | 1018.7 |
| 20260503033533 | 3 | 137 | 0.0 | 1.6 | 0.00 | 0.00 | 0.00 | 99 | 1018.8 |
| 20260503032533 | 3 | 136 | 0.0 | 1.6 | 0.00 | 0.00 | 0.00 | 99 | 1019.1 |
| 20260503031532 | 3 | 138 | 0.0 | 1.6 | 0.00 | 0.00 | 0.00 | 98 | 1018.8 |
| 20260503030532 | 3 | 135 | 0.0 | 1.6 | 0.00 | 0.00 | 0.00 | 98 | 1019.1 |
| 20260503024531 | 3 | 138 | 0.0 | 1.6 | 0.00 | 0.00 | 0.00 | 98 | 1018.8 |
| 20260503023531 | 3 | 130 | 0.0 | 0.0 | 0.00 | 0.00 | 0.00 | 98 | 1018.9 |
| 20260503022530 | 3 | 131 | 0.0 | 0.0 | 0.00 | 0.00 | 0.00 | 98 | 1019.0 |
| 20260503021531 | 3 | 131 | 0.0 | 0.0 | 0.00 | 0.00 | 0.00 | 97 | 1019.0 |
| 20260503020531 | 3 | 131 | 0.0 | 0.0 | 0.00 | 0.00 | 0.00 | 97 | 1019.1 |
| 20260503015530 | 4 | 130 | 0.0 | 0.0 | 0.00 | 0.00 | 0.00 | 97 | 1019.2 |
| 20260503014531 | 4 | 138 | 0.0 | 0.0 | 0.00 | 0.00 | 0.00 | 97 | 1019.3 |
| 20260503013531 | 4 | 138 | 0.0 | 0.0 | 0.00 | 0.00 | 0.00 | 96 | 1019.2 |
| 20260503012532 | 4 | 138 | 0.0 | 0.0 | 0.00 | 0.00 | 0.00 | 95 | 1019.0 |
| 20260503011533 | 4 | 138 | 0.0 | 0.0 | 0.00 | 0.00 | 0.00 | 95 | 1019.2 |
| 20260503010533 | 5 | 138 | 0.0 | 0.0 | 0.00 | 0.00 | 0.00 | 94 | 1019.3 |
| 20260503005531 | 5 | 131 | 0.0 | 0.0 | 0.00 | 0.00 | 0.00 | 94 | 1019.4 |
| 20260503003533 | 5 | 125 | 0.0 | 0.0 | 0.00 | 0.00 | 0.00 | 93 | 1019.2 |
| 20260503001534 | 6 | 135 | 0.0 | 0.0 | 0.00 | 0.00 | 0.00 | 91 | 1019.0 |
| 20260503000533 | 6 | 135 | 0.0 | 0.0 | 0.00 | 0.00 | 0.00 | 90 | 1019.3 |
| 20260502234533 | 6 | 135 | 0.0 | 1.6 | 0.00 | 0.00 | 0.00 | 89 | 1019.1 |
| 20260502233530 | 6 | 129 | 0.0 | 0.0 | 0.00 | 0.00 | 0.00 | 89 | 1019.4 |
| 20260502231519 | 7 | 136 | 0.0 | 1.6 | 0.00 | 0.00 | 0.00 | 87 | 1019.4 |
| 20260502230534 | 7 | 124 | 1.6 | 3.2 | 0.00 | 0.00 | 0.00 | 87 | 1019.4 |
| 20260502223509 | 8 | 152 | 1.6 | 3.2 | 0.00 | 0.00 | 0.00 | 85 | 1019.5 |
| 20260502222509 | 8 | 131 | 0.0 | 3.2 | 0.00 | 0.00 | 0.00 | 86 | 1019.5 |
| 20260502221508 | 8 | 131 | 1.6 | 3.2 | 0.00 | 0.00 | 0.00 | 84 | 1019.7 |
| 20260502220508 | 8 | 134 | 1.6 | 3.2 | 0.00 | 0.00 | 0.00 | 84 | 1019.6 |
| 20260502215510 | 8 | 135 | 1.6 | 3.2 | 0.00 | 0.00 | 0.00 | 84 | 1019.9 |
| 20260502214507 | 7 | 142 | 0.0 | 1.6 | 0.00 | 0.00 | 0.00 | 86 | 1019.9 |
| 20260502211509 | 8 | 134 | 0.0 | 1.6 | 0.00 | 0.00 | 0.00 | 85 | 1020.0 |
| 20260502204509 | 9 | 138 | 0.0 | 1.6 | 0.00 | 0.00 | 0.00 | 84 | 1020.0 |
| 20260502203510 | 9 | 137 | 0.0 | 1.6 | 0.00 | 0.00 | 0.00 | 82 | 1019.8 |
| 20260502202507 | 10 | 140 | 0.0 | 1.6 | 0.00 | 0.00 | 0.00 | 80 | 1020.2 |
| 20260502200510 | 10 | 144 | 1.6 | 1.6 | 0.00 | 0.00 | 0.00 | 79 | 1020.2 |
| 20260502195509 | 10 | 144 | 0.0 | 3.2 | 0.00 | 0.00 | 0.00 | 79 | 1020.2 |
| 20260502194507 | 11 | 140 | 1.6 | 3.2 | 0.00 | 0.00 | 0.00 | 75 | 1020.2 |
| 20260502191507 | 11 | 130 | 1.6 | 3.2 | 0.00 | 0.00 | 0.00 | 76 | 1020.2 |
| 20260502190521 | 12 | 139 | 1.6 | 3.2 | 0.00 | 0.00 | 0.00 | 72 | 1020.2 |
| 20260502185510 | 12 | 141 | 0.0 | 1.6 | 0.00 | 0.00 | 0.00 | 71 | 1020.3 |
| 20260502184502 | 12 | 141 | 0.0 | 1.6 | 0.00 | 0.00 | 0.00 | 71 | 1020.0 |
| 20260502183459 | 13 | 132 | 0.0 | 3.2 | 0.00 | 0.00 | 0.00 | 69 | 1020.2 |
| 20260502182501 | 13 | 134 | 1.6 | 1.6 | 0.00 | 0.00 | 0.00 | 64 | 1020.2 |
| 20260502181500 | 15 | 135 | 0.0 | 1.6 | 0.00 | 0.00 | 0.00 | 62 | 1020.2 |
| 20260502180502 | 15 | 144 | 0.0 | 0.0 | 0.00 | 0.00 | 0.00 | 60 | 1020.1 |
| 20260502170501 | 21 | 137 | 0.0 | 4.8 | 0.00 | 0.00 | 0.00 | 39 | 1020.4 |
| 20260502163450 | 25 | 155 | 3.2 | 4.8 | 0.00 | 0.00 | 0.00 | 33 | 1020.5 |
| 20260502162450 | 24 | 226 | 1.6 | 3.2 | 0.00 | 0.00 | 0.00 | 35 | 1020.6 |
| 20260502161449 | 24 | 266 | 3.2 | 4.8 | 0.00 | 0.00 | 0.00 | 34 | 1020.5 |
| 20260502160448 | 24 | 149 | 3.2 | 4.8 | 0.00 | 0.00 | 0.00 | 37 | 1020.6 |
| 20260502150449 | 24 | 169 | 4.8 | 9.7 | 0.00 | 0.00 | 0.00 | 32 | 1021.2 |
| 20260502130447 | 26 | 68 | 0.0 | 9.7 | 0.00 | 0.00 | 0.00 | 35 | 1022.4 |
| 20260502123447 | 24 | 157 | 4.8 | 11.3 | 0.00 | 0.00 | 0.00 | 37 | 1022.8 |
| 20260502121448 | 23 | 141 | 1.6 | 11.3 | 0.00 | 0.00 | 0.00 | 41 | 1023.0 |
| 20260502120449 | 25 | 149 | 0.0 | 9.7 | 0.00 | 0.00 | 0.00 | 37 | 1023.2 |
| 20260502114449 | 23 | 157 | 0.0 | 9.7 | 0.00 | 0.00 | 0.00 | 36 | 1023.5 |
| 20260502113447 | 24 | 89 | 1.6 | 6.4 | 0.00 | 0.00 | 0.00 | 37 | 1023.5 |
| 20260502110501 | 23 | 145 | 0.0 | 9.7 | 0.00 | 0.00 | 0.00 | 39 | 1023.9 |
| 20260502104447 | 22 | 147 | 3.2 | 6.4 | 0.00 | 0.00 | 0.00 | 39 | 1024.1 |
| 20260502103450 | 22 | 71 | 0.0 | 9.7 | 0.00 | 0.00 | 0.00 | 43 | 1024.4 |
| 20260502102449 | 22 | 131 | 3.2 | 11.3 | 0.00 | 0.00 | 0.00 | 38 | 1024.4 |
| 20260502101447 | 22 | 134 | 1.6 | 4.8 | 0.00 | 0.00 | 0.00 | 43 | 1024.4 |
| 20260502100449 | 22 | 234 | 1.6 | 9.7 | 0.00 | 0.00 | 0.00 | 39 | 1024.4 |
| 20260502091447 | 21 | 174 | 1.6 | 6.4 | 0.00 | 0.00 | 0.00 | 38 | 1025.0 |
| 20260502090449 | 21 | 174 | 1.6 | 9.7 | 0.00 | 0.00 | 0.00 | 37 | 1025.1 |